WJA271 CYYC-CYYJ

Flight info

Callsign WJA271
Flight time 1h 3m
Altitude 34000
Route BOTAG Q894 BOOTH APASS8
Aircraft B38M/M-SDE1FGHILORVWXY/HB1

Departure

Time 2026-04-26 19:53
Airport Calgary International Airport (CYYC)

Arrival

Time 2026-04-26 20:56
Airport Victoria International Airport (CYYJ)
Time Latitude Longitude Altitude Speed Heading
2026-04-26 19:24 51.12931 -114.01153 3543 ft 0 kts 310°
2026-04-26 19:41 51.12919 -114.01129 3546 ft 4 kts 306°
2026-04-26 19:41 51.12906 -114.01101 3542 ft 3 kts 308°
2026-04-26 19:41 51.12901 -114.01091 3543 ft 4 kts 308°
2026-04-26 19:42 51.12888 -114.01063 3544 ft 4 kts 341°
2026-04-26 19:42 51.12902 -114.01045 3549 ft 4 kts 44°
2026-04-26 19:42 51.12927 -114.01027 3548 ft 1 kts 202°
2026-04-26 19:45 51.12923 -114.01030 3547 ft 3 kts 201°
2026-04-26 19:45 51.12878 -114.01067 3547 ft 13 kts 215°
2026-04-26 19:46 51.12793 -114.01193 3543 ft 19 kts 220°
2026-04-26 19:46 51.12689 -114.01336 3546 ft 20 kts 222°
2026-04-26 19:46 51.12581 -114.01489 3548 ft 21 kts 220°
2026-04-26 19:46 51.12448 -114.01565 3549 ft 21 kts 180°
2026-04-26 19:47 51.12304 -114.01567 3551 ft 21 kts 180°
2026-04-26 19:47 51.12257 -114.01567 3550 ft 21 kts 180°
2026-04-26 19:47 51.12034 -114.01675 3554 ft 21 kts 209°
2026-04-26 19:47 51.11908 -114.01788 3554 ft 21 kts 195°
2026-04-26 19:48 51.11769 -114.01794 3556 ft 20 kts 180°
2026-04-26 19:48 51.11624 -114.01797 3556 ft 21 kts 180°
2026-04-26 19:48 51.11471 -114.01797 3556 ft 22 kts 178°
2026-04-26 19:48 51.11316 -114.01796 3556 ft 23 kts 180°
2026-04-26 19:49 51.11157 -114.01795 3557 ft 23 kts 180°
2026-04-26 19:49 51.10998 -114.01795 3559 ft 23 kts 180°
2026-04-26 19:49 51.10837 -114.01797 3561 ft 23 kts 180°
2026-04-26 19:49 51.10675 -114.01798 3562 ft 23 kts 180°
2026-04-26 19:50 51.10513 -114.01796 3558 ft 23 kts 179°
2026-04-26 19:50 51.10355 -114.01798 3563 ft 23 kts 180°
2026-04-26 19:50 51.10191 -114.01798 3564 ft 24 kts 181°
2026-04-26 19:50 51.10025 -114.01798 3567 ft 24 kts 180°
2026-04-26 19:51 51.09861 -114.01796 3564 ft 23 kts 180°
2026-04-26 19:51 51.09718 -114.01808 3569 ft 15 kts 206°
2026-04-26 19:51 51.09691 -114.01939 3567 ft 13 kts 270°
2026-04-26 19:51 51.09692 -114.02073 3570 ft 12 kts 270°
2026-04-26 19:52 51.09761 -114.02137 3570 ft 24 kts
2026-04-26 19:52 51.10175 -114.02137 3560 ft 94 kts
2026-04-26 19:52 51.11026 -114.02135 3561 ft 148 kts
2026-04-26 19:52 51.12085 -114.02145 4032 ft 158 kts 359°
2026-04-26 19:53 51.13221 -114.02187 4750 ft 169 kts 359°
2026-04-26 19:53 51.14406 -114.02236 5458 ft 172 kts 358°
2026-04-26 19:53 51.15632 -114.02284 6085 ft 179 kts 358°
2026-04-26 19:53 51.16914 -114.02301 6673 ft 189 kts 357°
2026-04-26 19:54 51.18211 -114.02920 6868 ft 206 kts 322°
2026-04-26 19:54 51.18964 -114.04907 6936 ft 224 kts 281°
2026-04-26 19:54 51.18817 -114.07457 6961 ft 240 kts 253°
2026-04-26 19:54 51.18203 -114.10023 7163 ft 254 kts 253°
2026-04-26 19:55 51.17616 -114.12620 8066 ft 251 kts 253°
2026-04-26 19:55 51.17024 -114.15283 8731 ft 263 kts 253°
2026-04-26 19:55 51.16414 -114.18128 9212 ft 279 kts 253°
2026-04-26 19:55 51.15784 -114.21048 10090 ft 279 kts 253°
2026-04-26 19:56 51.15137 -114.24034 10588 ft 294 kts 253°
2026-04-26 19:56 51.14458 -114.27219 10877 ft 313 kts 253°
2026-04-26 19:56 51.13736 -114.30598 11196 ft 330 kts 253°
2026-04-26 19:56 51.12977 -114.34117 11737 ft 339 kts 252°
2026-04-26 19:57 51.12200 -114.37659 12467 ft 340 kts 252°
2026-04-26 19:57 51.11411 -114.41237 13209 ft 344 kts 252°
2026-04-26 19:57 51.10883 -114.43618 13757 ft 345 kts 252°
2026-04-26 19:57 51.09813 -114.48419 14662 ft 351 kts 252°
2026-04-26 19:58 51.08986 -114.52124 15264 ft 358 kts 252°
2026-04-26 19:58 51.08145 -114.55882 15917 ft 364 kts 253°
2026-04-26 19:58 51.07288 -114.59711 16555 ft 370 kts 253°
2026-04-26 19:58 51.06618 -114.63686 17168 ft 375 kts 259°
2026-04-26 19:59 51.06202 -114.66367 17588 ft 380 kts 259°
2026-04-26 19:59 51.05549 -114.70470 18209 ft 386 kts 258°
2026-04-26 19:59 51.04874 -114.74634 18773 ft 392 kts 258°
2026-04-26 19:59 51.04187 -114.78849 19330 ft 396 kts 258°
2026-04-26 20:00 51.03284 -114.84493 20089 ft 401 kts 258°
2026-04-26 20:00 51.02816 -114.87401 20452 ft 404 kts 258°
2026-04-26 20:00 51.01885 -114.93165 21139 ft 410 kts 258°
2026-04-26 20:00 51.01404 -114.96137 21499 ft 412 kts 258°
2026-04-26 20:01 51.00695 -115.00506 22036 ft 416 kts 258°
2026-04-26 20:01 50.99969 -115.04966 22589 ft 419 kts 258°
2026-04-26 20:01 50.99234 -115.09472 23105 ft 423 kts 258°
2026-04-26 20:01 50.98492 -115.14013 23605 ft 427 kts 258°
2026-04-26 20:02 50.97741 -115.18592 24033 ft 431 kts 258°
2026-04-26 20:02 50.96983 -115.23200 24495 ft 433 kts 258°
2026-04-26 20:02 50.96219 -115.27829 24964 ft 435 kts 258°
2026-04-26 20:02 50.95709 -115.30913 25201 ft 437 kts 258°
2026-04-26 20:03 50.94672 -115.37172 25762 ft 441 kts 258°
2026-04-26 20:03 50.93889 -115.41882 26189 ft 443 kts 258°
2026-04-26 20:03 50.93098 -115.46624 26633 ft 446 kts 258°
2026-04-26 20:03 50.92302 -115.51383 26999 ft 448 kts 258°
2026-04-26 20:04 50.91501 -115.56164 27397 ft 450 kts 258°
2026-04-26 20:04 50.90694 -115.60963 27818 ft 452 kts 258°
2026-04-26 20:04 50.89891 -115.65726 28192 ft 455 kts 258°
2026-04-26 20:04 50.89071 -115.70575 28526 ft 457 kts 258°
2026-04-26 20:05 50.88244 -115.75451 28895 ft 459 kts 258°
2026-04-26 20:05 50.87412 -115.80345 29248 ft 462 kts 257°
2026-04-26 20:05 50.86572 -115.85274 29552 ft 465 kts 257°
2026-04-26 20:05 50.85725 -115.90227 29938 ft 467 kts 257°
2026-04-26 20:06 50.84872 -115.95198 30204 ft 470 kts 257°
2026-04-26 20:06 50.84014 -116.00189 30493 ft 471 kts 257°
2026-04-26 20:06 50.83149 -116.05206 30766 ft 474 kts 257°
2026-04-26 20:06 50.82279 -116.10236 31064 ft 476 kts 257°
2026-04-26 20:07 50.81402 -116.15291 31368 ft 477 kts 257°
2026-04-26 20:07 50.80523 -116.20342 31745 ft 476 kts 257°
2026-04-26 20:07 50.79654 -116.25325 32093 ft 476 kts 257°
2026-04-26 20:07 50.78761 -116.30432 32467 ft 476 kts 257°
2026-04-26 20:08 50.77890 -116.35402 32846 ft 476 kts 257°
2026-04-26 20:08 50.77006 -116.40438 33237 ft 475 kts 257°
2026-04-26 20:08 50.76117 -116.45460 33633 ft 475 kts 256°
2026-04-26 20:08 50.75149 -116.50440 33975 ft 475 kts 255°
2026-04-26 20:09 50.73210 -116.60399 34013 ft 473 kts 255°
2026-04-26 20:09 50.71284 -116.70321 34003 ft 474 kts 255°
2026-04-26 20:10 50.69342 -116.80265 33999 ft 474 kts 255°
2026-04-26 20:10 50.67404 -116.90135 33990 ft 475 kts 255°
2026-04-26 20:11 50.65446 -117.00059 33991 ft 474 kts 255°
2026-04-26 20:12 50.62494 -117.14924 33960 ft 474 kts 255°
2026-04-26 20:12 50.60514 -117.24827 33957 ft 474 kts 255°
2026-04-26 20:13 50.58526 -117.34723 33962 ft 474 kts 255°
2026-04-26 20:13 50.56543 -117.44543 33957 ft 474 kts 255°
2026-04-26 20:14 50.54539 -117.54423 33932 ft 474 kts 255°
2026-04-26 20:14 50.52525 -117.64293 33931 ft 474 kts 255°
2026-04-26 20:15 50.50507 -117.74142 33947 ft 474 kts 255°
2026-04-26 20:15 50.48476 -117.83997 33928 ft 474 kts 255°
2026-04-26 20:16 50.46454 -117.93765 33903 ft 474 kts 255°
2026-04-26 20:16 50.44407 -118.03608 33926 ft 475 kts 255°
2026-04-26 20:17 50.42348 -118.13457 33926 ft 475 kts 255°
2026-04-26 20:17 50.40282 -118.23294 33911 ft 475 kts 255°
2026-04-26 20:18 50.38206 -118.33126 33909 ft 475 kts 255°
2026-04-26 20:18 50.36122 -118.42950 33917 ft 476 kts 255°
2026-04-26 20:19 50.34041 -118.52714 33909 ft 476 kts 255°
2026-04-26 20:19 50.31939 -118.62532 33899 ft 475 kts 255°
2026-04-26 20:20 50.29829 -118.72336 33903 ft 476 kts 255°
2026-04-26 20:20 50.27711 -118.82133 33885 ft 476 kts 255°
2026-04-26 20:21 50.25577 -118.91951 33899 ft 478 kts 255°
2026-04-26 20:21 50.23446 -119.01712 33892 ft 479 kts 255°
2026-04-26 20:22 50.21288 -119.11547 33906 ft 478 kts 255°
2026-04-26 20:22 50.19128 -119.21350 33879 ft 478 kts 255°
2026-04-26 20:23 50.16954 -119.31167 33883 ft 480 kts 255°
2026-04-26 20:23 50.14781 -119.40936 33887 ft 480 kts 255°
2026-04-26 20:24 50.12585 -119.50759 33884 ft 480 kts 255°
2026-04-26 20:24 50.10380 -119.60579 33894 ft 480 kts 255°
2026-04-26 20:25 50.08163 -119.70405 33890 ft 482 kts 256°
2026-04-26 20:25 50.05946 -119.80189 33895 ft 483 kts 256°
2026-04-26 20:26 50.03701 -119.90045 33908 ft 483 kts 256°
2026-04-26 20:26 50.01447 -119.99895 33921 ft 484 kts 256°
2026-04-26 20:27 49.99184 -120.09742 33914 ft 485 kts 256°
2026-04-26 20:27 49.96919 -120.19550 33916 ft 485 kts 256°
2026-04-26 20:28 49.94630 -120.29416 33901 ft 485 kts 256°
2026-04-26 20:28 49.92333 -120.39274 33911 ft 486 kts 256°
2026-04-26 20:29 49.90029 -120.49119 33875 ft 486 kts 257°
2026-04-26 20:29 49.87704 -120.59001 33898 ft 488 kts 257°
2026-04-26 20:30 49.85385 -120.68814 33884 ft 488 kts 257°
2026-04-26 20:30 49.83041 -120.78691 33888 ft 489 kts 256°
2026-04-26 20:31 49.80691 -120.88548 33850 ft 488 kts 257°
2026-04-26 20:31 49.78321 -120.98442 33874 ft 491 kts 257°
2026-04-26 20:32 49.75944 -121.08324 33889 ft 491 kts 257°
2026-04-26 20:32 49.73574 -121.18133 33889 ft 490 kts 257°
2026-04-26 20:33 49.71173 -121.28019 33840 ft 491 kts 257°
2026-04-26 20:33 49.68769 -121.37880 33865 ft 490 kts 257°
2026-04-26 20:34 49.66352 -121.47745 33789 ft 491 kts 257°
2026-04-26 20:34 49.65144 -121.52669 33927 ft 492 kts 257°
2026-04-26 20:34 49.63928 -121.57610 33877 ft 492 kts 257°
2026-04-26 20:35 49.61517 -121.67379 33816 ft 490 kts 257°
2026-04-26 20:35 49.60309 -121.72262 33000 ft 489 kts 257°
2026-04-26 20:35 49.59084 -121.77206 31738 ft 499 kts 257°
2026-04-26 20:35 49.57833 -121.82237 30773 ft 504 kts 257°
2026-04-26 20:36 49.56584 -121.87245 30254 ft 497 kts 257°
2026-04-26 20:36 49.55351 -121.92185 29666 ft 492 kts 257°
2026-04-26 20:36 49.54123 -121.97092 28916 ft 490 kts 256°
2026-04-26 20:36 49.52903 -122.01956 28348 ft 484 kts 256°
2026-04-26 20:37 49.51438 -122.06619 27823 ft 487 kts 244°
2026-04-26 20:37 49.49653 -122.11035 27143 ft 485 kts 245°
2026-04-26 20:37 49.47895 -122.15439 26556 ft 482 kts 245°
2026-04-26 20:37 49.46146 -122.19825 25957 ft 479 kts 244°
2026-04-26 20:38 49.44410 -122.24170 25395 ft 475 kts 244°
2026-04-26 20:38 49.42710 -122.28420 24825 ft 472 kts 244°
2026-04-26 20:38 49.40994 -122.32703 24262 ft 469 kts 244°
2026-04-26 20:38 49.39296 -122.36962 23619 ft 467 kts 244°
2026-04-26 20:39 49.37607 -122.41197 23013 ft 463 kts 243°
2026-04-26 20:39 49.35930 -122.45391 22414 ft 459 kts 243°
2026-04-26 20:39 49.34266 -122.49546 21818 ft 454 kts 243°
2026-04-26 20:39 49.32626 -122.53635 21324 ft 447 kts 243°
2026-04-26 20:40 49.31005 -122.57673 20787 ft 443 kts 243°
2026-04-26 20:40 49.29398 -122.61668 20249 ft 439 kts 243°
2026-04-26 20:40 49.27801 -122.65630 19731 ft 435 kts 242°
2026-04-26 20:40 49.26246 -122.69483 19396 ft 427 kts 242°
2026-04-26 20:41 49.24694 -122.73320 19034 ft 421 kts 242°
2026-04-26 20:41 49.23163 -122.77100 18626 ft 415 kts 242°
2026-04-26 20:41 49.21652 -122.80829 18256 ft 410 kts 242°
2026-04-26 20:41 49.20156 -122.84510 17894 ft 404 kts 242°
2026-04-26 20:42 49.18685 -122.88129 17524 ft 398 kts 242°
2026-04-26 20:42 49.17232 -122.91698 17147 ft 393 kts 242°
2026-04-26 20:42 49.15798 -122.95213 16775 ft 388 kts 242°
2026-04-26 20:42 49.14380 -122.98688 16414 ft 383 kts 242°
2026-04-26 20:43 49.12979 -123.02113 16080 ft 377 kts 241°
2026-04-26 20:43 49.11626 -123.05419 15996 ft 365 kts 241°
2026-04-26 20:43 49.10309 -123.08634 16027 ft 350 kts 242°
2026-04-26 20:43 49.09045 -123.11717 16006 ft 337 kts 242°
2026-04-26 20:44 49.07570 -123.14468 15981 ft 338 kts 222°
2026-04-26 20:44 49.05549 -123.16304 16021 ft 341 kts 206°
2026-04-26 20:44 49.03400 -123.17850 16019 ft 342 kts 207°
2026-04-26 20:44 49.01241 -123.19388 15409 ft 350 kts 207°
2026-04-26 20:45 48.98993 -123.20965 14613 ft 354 kts 206°
2026-04-26 20:45 48.96782 -123.22504 14157 ft 345 kts 206°
2026-04-26 20:45 48.94627 -123.23999 13752 ft 335 kts 206°
2026-04-26 20:45 48.92564 -123.25426 13326 ft 326 kts 206°
2026-04-26 20:46 48.90530 -123.26831 12923 ft 316 kts 206°
2026-04-26 20:46 48.88562 -123.28189 12549 ft 306 kts 206°
2026-04-26 20:46 48.86680 -123.29583 12194 ft 294 kts 216°
2026-04-26 20:46 48.85237 -123.31625 11952 ft 276 kts 233°
2026-04-26 20:47 48.83987 -123.33763 11653 ft 268 kts 225°
2026-04-26 20:47 48.83052 -123.34953 11480 ft 261 kts 222°
2026-04-26 20:47 48.81210 -123.37289 10949 ft 256 kts 223°
2026-04-26 20:47 48.79862 -123.39032 10547 ft 253 kts 223°
2026-04-26 20:48 48.78554 -123.40736 10169 ft 247 kts 223°
2026-04-26 20:48 48.77254 -123.42440 9589 ft 248 kts 223°
2026-04-26 20:48 48.76007 -123.44211 9035 ft 243 kts 235°
2026-04-26 20:48 48.75376 -123.46502 8471 ft 234 kts 265°
2026-04-26 20:49 48.75491 -123.48921 7895 ft 229 kts 285°
2026-04-26 20:49 48.75864 -123.51255 7363 ft 227 kts 287°
2026-04-26 20:49 48.76259 -123.53562 6836 ft 224 kts 288°
2026-04-26 20:49 48.76657 -123.55802 6504 ft 215 kts 288°
2026-04-26 20:50 48.77046 -123.57949 6084 ft 211 kts 288°
2026-04-26 20:50 48.77441 -123.60099 5562 ft 211 kts 288°
2026-04-26 20:50 48.77831 -123.62202 5118 ft 209 kts 289°
2026-04-26 20:50 48.78226 -123.64330 5040 ft 211 kts 287°
2026-04-26 20:51 48.78253 -123.66543 4766 ft 215 kts 257°
2026-04-26 20:51 48.77450 -123.68434 4489 ft 214 kts 220°
2026-04-26 20:51 48.76147 -123.69378 4373 ft 207 kts 197°
2026-04-26 20:51 48.74741 -123.69966 4359 ft 211 kts 195°
2026-04-26 20:52 48.73302 -123.70146 4290 ft 207 kts 167°
2026-04-26 20:52 48.72058 -123.69153 4282 ft 203 kts 139°
2026-04-26 20:52 48.71039 -123.67662 4218 ft 203 kts 131°
2026-04-26 20:52 48.70177 -123.66009 3891 ft 202 kts 126°
2026-04-26 20:53 48.69389 -123.64306 3654 ft 196 kts 121°
2026-04-26 20:53 48.68767 -123.62426 3179 ft 204 kts 111°
2026-04-26 20:53 48.68358 -123.60375 2857 ft 202 kts 104°
2026-04-26 20:53 48.67965 -123.58340 2527 ft 200 kts 104°
2026-04-26 20:54 48.67612 -123.56304 2026 ft 201 kts 103°
2026-04-26 20:54 48.67259 -123.54270 1568 ft 195 kts 105°
2026-04-26 20:54 48.66890 -123.52428 1332 ft 173 kts 107°
2026-04-26 20:54 48.66544 -123.50780 1057 ft 158 kts 109°
2026-04-26 20:55 48.66214 -123.49261 923 ft 150 kts 108°
2026-04-26 20:55 48.65909 -123.47761 731 ft 151 kts 106°
2026-04-26 20:55 48.65634 -123.46243 483 ft 148 kts 105°
2026-04-26 20:55 48.65349 -123.44760 228 ft 146 kts 107°
2026-04-26 20:56 48.65067 -123.43317 61 ft 134 kts 106°
2026-04-26 20:56 48.64871 -123.42299 57 ft 62 kts 107°
2026-04-26 20:56 48.64828 -123.42077 54 ft 13 kts 106°
2026-04-26 20:56 48.64766 -123.42052 55 ft 7 kts 214°
2026-04-26 20:57 48.64750 -123.42078 59 ft 8 kts 229°
2026-04-26 20:57 48.64695 -123.42170 57 ft 14 kts 222°
2026-04-26 20:57 48.64612 -123.42252 56 ft 14 kts 204°
2026-04-26 20:57 48.64514 -123.42298 55 ft 16 kts 193°
2026-04-26 20:58 48.64402 -123.42348 54 ft 17 kts 193°
2026-04-26 20:58 48.64299 -123.42389 58 ft 11 kts 191°
2026-04-26 20:58 48.64215 -123.42408 56 ft 13 kts 188°
2026-04-26 20:58 48.64132 -123.42472 56 ft 15 kts 244°
2026-04-26 20:59 48.64135 -123.42633 57 ft 17 kts 278°
2026-04-26 20:59 48.64150 -123.42781 59 ft 10 kts 287°
2026-04-26 20:59 48.64166 -123.42846 51 ft 6 kts 275°
2026-04-26 20:59 48.64149 -123.42904 55 ft 6 kts 229°
2026-04-26 21:00 48.64121 -123.42953 57 ft 5 kts 225°
2026-04-26 21:00 48.64112 -123.42966 59 ft 1 kts 223°
2026-04-26 21:00 48.64111 -123.42967 59 ft 0 kts 223°